Probability
0 0 1 2 2 2 2 1 0 0 0 0 1 2 3 8 14 18 18 18 18 21 24 24 23 22 26 32 34 31 27 22 18 16 15 12 10 8 7 8 8 7 5 5
0 0 0 1 1 1 1 0 0 0 0 0 0 1 3 7 13 18 19 19 21 24 27 26 23 23 25 31 35 34 31 28 24 21 17 13 11 9 8 9 9 9 9 9
0 0 0 0 0 0 0 0 0 0 0 0 0 0 2 5 11 17 20 20 22 26 29 28 26 27 28 30 33 34 36 38 36 30 21 14 12 10 9 9 10 13 14 15
0 0 0 0 0 0 0 0 0 0 0 0 0 0 1 4 10 16 20 21 22 25 29 31 31 31 30 29 29 33 41 47 46 38 27 20 16 13 10 10 12 15 16 16
0 0 0 0 0 0 0 0 0 0 0 0 0 0 1 3 7 14 19 21 23 26 31 33 34 33 29 27 26 33 45 51 50 44 37 30 23 19 16 14 16 18 17 16
0 0 0 0 0 0 0 0 0 0 0 0 0 0 1 2 4 10 16 20 24 28 32 34 35 34 31 27 27 35 47 51 49 46 41 35 28 25 23 22 22 21 20 20
0 0 0 0 0 0 0 0 0 0 0 0 0 1 3 3 4 8 14 20 25 29 32 34 36 37 37 33 31 38 48 51 49 45 40 35 31 28 28 27 26 24 24 24
0 0 0 0 0 0 0 0 0 0 0 0 0 1 4 5 5 9 14 20 25 29 32 35 37 39 38 36 36 43 51 54 51 46 42 38 32 29 29 29 27 26 25 23
0 0 0 0 0 0 0 0 0 0 0 0 0 2 4 5 6 10 16 24 27 29 32 35 34 35 35 36 41 48 54 56 52 49 46 40 33 29 30 30 28 26 25 23
0 0 0 0 0 0 0 0 0 0 0 0 0 1 4 5 7 12 20 27 29 29 32 32 31 32 35 37 42 49 54 54 52 50 45 38 33 32 32 31 29 28 28 28
0 0 0 0 0 0 0 0 0 0 0 0 0 1 3 5 7 12 22 29 29 28 28 30 31 33 37 41 44 47 50 50 49 48 44 37 35 35 35 34 33 33 34 36
0 0 0 0 0 0 0 0 0 0 0 0 1 2 4 6 8 12 21 27 28 26 26 30 34 36 39 42 44 46 48 48 46 45 44 40 37 36 36 37 38 37 36 37
0 0 0 0 0 0 0 0 0 0 0 0 1 3 6 9 12 16 20 26 27 25 27 33 37 40 41 43 43 44 45 44 43 42 43 42 38 36 36 37 39 39 36 34
0 0 0 0 0 0 0 0 1 1 1 0 1 4 7 10 15 18 20 24 27 28 31 36 40 42 44 45 44 42 40 40 41 40 41 41 38 35 33 35 38 37 34 32
0 0 0 0 0 0 0 0 1 1 1 0 1 4 8 14 19 22 22 24 26 29 33 36 38 41 44 46 45 42 39 39 40 40 38 38 37 34 32 33 35 35 32 29
0 0 0 0 0 0 0 0 0 1 1 0 2 5 11 18 24 25 24 26 27 28 29 32 35 38 42 44 44 41 39 40 41 39 37 36 36 34 32 32 33 35 34 31
0 0 0 0 0 0 1 1 1 2 2 2 4 8 13 21 25 24 25 29 30 29 28 30 33 36 38 39 39 38 38 39 40 38 36 35 35 34 34 33 33 36 36 34
0 0 0 1 1 1 2 2 3 3 3 4 5 8 14 20 22 21 23 28 33 33 33 33 33 33 33 32 32 34 37 38 38 37 35 33 31 32 35 36 34 35 33 31
0 0 0 1 2 2 2 3 3 3 3 4 4 7 13 17 17 17 20 27 32 36 37 34 31 31 32 32 31 33 35 37 37 37 35 32 29 30 33 34 33 32 30 28
0 0 0 0 1 1 3 3 2 3 4 4 5 8 11 14 16 16 19 25 31 34 35 32 29 31 36 38 37 35 34 33 33 34 33 31 29 29 30 31 32 32 30 29
0 0 0 0 0 2 4 4 4 4 5 6 6 8 10 15 20 21 21 23 28 32 32 30 30 34 39 43 44 41 36 32 31 32 31 29 29 28 28 31 33 34 32 30
0 0 0 0 1 2 3 4 5 7 8 8 7 7 9 16 22 23 20 20 24 29 31 31 33 37 41 44 46 45 39 34 33 33 32 29 29 29 29 31 32 33 32 30
0 0 0 1 2 1 2 3 6 9 11 10 8 8 9 14 19 21 21 22 23 26 29 30 33 37 41 42 44 44 41 37 36 36 36 33 30 30 30 29 28 28 28 27
0 0 0 2 4 3 2 3 5 7 9 9 8 9 10 13 18 22 25 27 25 24 25 28 31 36 39 40 41 42 41 40 39 39 38 35 32 30 31 28 25 24 24 23
1 1 1 4 7 7 5 4 3 4 5 5 6 8 10 13 18 24 28 29 27 23 24 27 31 34 37 38 39 40 41 41 40 39 35 31 29 28 28 26 22 20 20 19
0 1 2 5 9 9 7 4 1 3 4 4 5 7 10 13 18 24 27 29 27 24 24 29 31 32 34 36 37 39 39 40 40 37 32 28 26 26 25 22 19 16 16 15
Wind_Speed
11 12 9 8 8 8 7 6 5 2 3 4 4 5 10 11 10 11 10 10 11 11 11 10 9 9 9 8 6 5 5 4 3 2 2 2 1 1 1 2 2 1 1 1
11 12 11 9 9 9 9 7 6 4 5 3 3 4 6 8 10 10 11 11 11 11 11 10 10 9 9 8 7 6 5 5 4 3 2 1 1 1 1 1 2 1 1 1
14 10 9 10 10 11 9 7 7 6 5 3 3 4 4 7 8 10 10 11 11 11 11 11 10 9 9 8 8 6 5 5 4 4 3 2 1 1 1 1 1 1 1 1
13 11 9 11 11 10 9 7 8 8 7 6 7 4 5 7 9 10 11 11 12 12 12 12 11 10 9 9 9 7 6 5 4 4 3 3 3 2 1 1 1 1 1 1
13 10 11 11 10 10 8 7 10 11 9 8 7 5 4 6 8 10 11 12 12 13 12 12 11 10 9 9 9 8 7 6 5 5 4 3 2 2 1 1 2 2 1 1
14 11 11 10 9 9 6 6 10 11 8 9 9 7 4 6 7 9 11 11 12 12 12 12 11 9 8 8 8 8 8 7 6 5 4 3 2 1 1 1 1 1 1 1
14 15 12 11 11 9 8 6 6 7 6 8 6 5 2 6 6 6 8 10 11 11 11 11 11 10 9 8 8 8 8 8 7 6 5 4 3 3 2 2 2 2 1 1
12 12 11 11 11 9 10 10 8 7 7 8 5 2 1 5 6 7 8 10 10 10 10 10 9 8 7 8 8 7 8 8 7 6 4 3 3 3 2 2 2 2 1 1
9 10 10 10 10 10 11 10 9 8 9 8 5 3 2 3 5 6 9 11 10 9 10 10 9 9 8 7 7 8 8 7 7 6 5 4 3 2 2 2 2 2 1 1
10 12 12 9 10 12 11 10 6 6 5 7 7 4 2 4 4 5 8 9 9 9 9 9 8 8 8 8 7 7 7 7 6 6 5 5 4 3 2 2 2 1 1 1
11 13 12 10 10 11 10 10 8 6 5 6 7 2 3 6 3 4 8 9 7 7 8 8 8 7 7 7 7 7 7 7 6 5 5 4 4 4 3 2 2 1 1 1
8 9 10 12 10 9 10 11 10 7 7 8 7 2 3 4 4 3 6 8 7 6 6 7 7 6 6 6 6 6 6 6 5 4 4 4 4 4 4 3 2 2 1 1
5 8 10 11 9 6 9 11 11 9 8 9 9 3 4 4 5 5 6 8 7 6 7 7 6 5 5 4 4 5 5 5 5 5 4 3 3 4 3 2 2 2 2 2
5 10 12 12 7 8 11 12 11 10 8 8 8 4 2 3 5 6 6 7 7 6 6 6 6 5 4 4 3 4 4 4 4 4 4 3 2 2 2 1 1 2 2 2
8 12 13 13 10 10 12 13 13 11 10 10 7 5 2 2 5 5 5 5 6 6 6 5 4 5 4 4 4 3 3 3 4 4 4 3 3 2 1 2 2 2 2 3
9 11 12 13 12 12 12 12 13 12 10 9 7 4 2 3 4 5 4 4 5 5 5 5 5 5 5 4 4 4 3 3 3 3 3 3 2 2 2 2 2 2 2 2
10 10 12 13 13 13 14 11 12 9 6 8 7 4 1 4 5 4 4 4 5 4 4 4 4 4 4 5 4 4 3 3 3 3 3 2 2 2 2 3 2 2 2 2
10 9 9 12 13 17 9 6 7 5 5 6 4 3 1 3 3 3 4 4 4 3 2 3 3 3 3 4 4 4 4 3 3 3 3 2 2 2 2 2 2 3 2 3
11 8 10 11 14 13 8 7 8 6 6 5 3 3 2 3 2 3 5 5 4 3 2 1 2 3 3 3 3 4 4 3 3 3 3 3 3 3 3 3 3 3 3 3
11 10 10 11 13 12 6 7 8 7 5 3 2 2 0 1 2 2 5 5 5 4 3 2 1 3 3 3 3 3 3 4 3 3 2 2 2 3 3 3 3 3 3 4
10 11 12 13 14 8 5 8 8 7 2 3 3 4 3 2 3 5 5 5 5 4 3 2 1 1 2 3 3 3 2 3 3 2 2 2 2 3 3 3 3 3 4 4
10 10 10 10 12 6 4 7 5 3 3 2 3 3 4 4 5 5 4 4 3 3 3 2 1 1 1 2 2 2 2 2 2 2 2 3 3 4 4 3 3 4 4 5
8 7 5 5 4 2 2 3 4 4 3 3 3 3 3 2 3 2 2 2 2 2 1 1 1 1 1 1 2 2 1 1 1 2 3 3 3 3 3 4 4 4 4 5
5 5 6 5 4 4 3 3 4 5 4 3 3 2 2 1 2 2 1 1 1 1 0 1 1 1 0 1 1 2 1 1 2 2 3 3 3 4 4 3 4 4 4 4
7 6 7 7 5 5 5 4 5 6 5 4 2 2 2 1 0 1 0 1 0 1 1 1 1 1 1 1 2 2 1 2 3 3 4 4 4 4 3 2 2 3 2 2
8 7 7 5 3 4 5 5 6 6 6 5 5 4 2 2 1 1 1 1 1 2 1 2 2 2 2 2 2 1 2 2 3 4 4 4 4 3 3 3 2 1 2 3
Wind_Direction
235 239 243 239 235 252 269 273 273 265 231 212 209 194 179 176 180 169 169 168 168 168 159 153 156 151 145 143 146 152 158 155 158 159 177 173 168 153 138 140 121 150 176 188
241 243 253 258 254 247 256 268 273 257 250 245 222 228 193 179 184 174 175 171 170 166 157 154 159 157 158 157 159 159 165 164 170 169 172 177 164 173 145 135 131 169 186 228
246 249 248 251 251 261 263 272 286 284 270 243 228 227 216 194 195 179 176 173 167 166 163 163 167 165 163 163 163 166 166 164 173 169 170 164 156 184 162 162 152 182 184 197
256 260 254 255 254 257 264 276 280 274 267 264 253 242 198 202 192 183 178 176 170 167 165 165 166 169 170 167 165 161 161 159 163 169 171 172 171 182 181 171 160 180 192 195
252 248 247 246 258 262 272 291 289 286 279 272 258 259 208 185 184 181 182 178 171 166 163 162 165 170 172 167 164 162 159 162 163 171 173 175 189 195 184 166 164 176 184 182
261 259 257 258 260 263 262 277 285 280 278 269 261 249 213 183 183 175 177 170 162 162 160 161 164 164 168 164 162 161 158 159 162 169 173 182 200 199 167 155 167 201 188 185
250 248 243 244 249 245 245 252 267 274 258 258 257 246 194 157 155 152 154 154 155 159 161 160 162 162 161 163 163 164 162 163 169 173 178 188 197 189 185 204 204 222 214 180
248 248 238 237 240 245 242 247 250 268 278 288 292 281 139 130 130 137 137 136 144 155 157 152 149 149 157 166 164 161 160 163 168 171 176 182 181 200 200 205 222 223 233 188
262 270 243 236 240 245 252 256 268 274 277 283 272 199 186 122 138 140 137 136 147 155 151 146 152 153 157 162 159 158 154 160 170 173 172 175 183 208 217 210 228 234 239 239
250 267 264 240 234 231 243 262 271 269 279 283 282 254 177 168 191 157 137 137 141 144 141 143 149 154 158 159 153 150 154 160 166 171 182 182 184 196 202 222 223 242 229 276
247 258 264 256 244 253 245 244 263 268 267 274 278 277 153 175 192 167 142 131 134 145 144 143 145 148 150 149 150 152 152 155 167 177 177 180 183 196 204 211 213 231 240 215
245 257 261 260 259 249 257 261 252 256 260 260 269 237 163 155 140 134 124 125 127 129 130 131 134 139 144 149 150 150 154 162 170 166 169 189 186 191 201 205 203 206 233 236
285 263 261 257 252 248 256 260 261 261 266 270 269 216 163 148 137 120 117 123 125 128 129 131 131 128 131 135 143 148 155 162 162 160 167 175 187 197 206 210 209 204 219 240
278 262 261 265 266 273 265 260 264 262 261 268 271 256 185 146 111 109 123 124 126 125 125 128 128 121 119 121 123 138 160 159 158 157 163 161 182 202 208 212 214 217 222 236
265 263 265 267 266 257 269 269 267 262 265 269 269 256 205 146 125 123 123 124 126 127 124 119 133 130 131 132 135 140 152 156 163 161 168 174 184 195 212 216 214 214 229 236
251 269 277 273 266 259 263 266 269 272 274 270 273 261 173 125 114 114 126 133 126 128 131 144 148 144 150 151 146 148 155 156 154 161 175 168 178 193 211 230 222 206 217 236
255 256 268 272 272 271 256 257 264 266 277 284 282 265 174 136 126 139 145 127 114 114 140 153 148 149 153 157 149 152 153 152 157 168 172 168 191 211 224 242 226 216 221 220
256 261 264 265 265 259 269 274 267 277 289 304 327 338 63 87 102 85 108 111 104 102 99 130 154 155 155 159 157 153 156 155 168 176 174 179 201 215 220 238 233 225 227 232
258 254 259 262 261 261 270 297 298 290 287 306 305 316 347 71 117 105 85 81 83 91 89 124 159 159 154 157 154 160 171 174 187 196 195 204 215 229 228 233 235 227 231 235
252 246 246 255 262 265 276 292 289 276 250 310 324 342 8 188 250 97 82 79 79 67 54 49 107 156 148 150 159 178 195 191 202 209 215 216 215 231 240 237 249 243 238 239
240 241 243 253 259 262 298 306 293 273 324 17 18 18 355 44 60 84 87 80 70 66 55 41 51 109 125 137 155 188 204 208 216 212 215 218 222 231 234 231 237 241 238 244
246 242 237 249 257 257 303 292 308 358 9 22 18 30 33 59 83 86 84 85 82 70 59 31 24 69 113 150 175 206 210 207 203 209 220 226 232 247 244 235 238 234 231 238
256 271 272 254 255 257 293 300 333 337 2 21 23 35 25 64 101 94 101 104 97 81 43 348 348 25 88 162 192 219 217 203 208 220 231 233 237 244 239 229 240 235 228 236
261 289 286 277 263 283 302 348 337 333 334 350 12 11 340 48 85 74 47 82 73 54 66 307 296 289 248 242 250 229 207 196 215 237 242 237 232 233 236 231 234 236 233 235
298 288 281 279 283 291 302 327 331 333 329 333 339 340 345 6 116 91 38 306 233 250 295 297 289 278 261 253 258 251 225 225 235 243 245 244 240 235 227 229 253 256 252 237
283 279 276 278 293 293 296 315 316 316 318 322 322 318 309 291 266 232 236 244 283 288 299 304 291 269 256 247 250 247 234 242 245 248 252 251 243 234 227 221 231 301 242 212